Regional Weather Roundup
Issued by NWS

Home | Current Version | Previous Version | Graphics & Text | Print | Product List | Glossary Off
Versions: 1 2 3 4 5 6 7 8 9 10 11 12 13 14 15 16 17 18 19 20 21 22 23 24 25 26 27 28 29 30 31 32 33 34 35 36 37 38 39 40 41 42 43 44 45 46 47 48 49 50

000
ASUS43 KMKX 252221
RWRWI

WISCONSIN REGIONAL WEATHER ROUNDUP
NATIONAL WEATHER SERVICE MILWAUKEE/SULLIVAN WI
500 PM CDT FRI MAY 25 2018

NOTE: "FAIR" INDICATES FEW OR NO CLOUDS BELOW 12,000 FEET WITH NO
SIGNIFICANT WEATHER AND/OR OBSTRUCTIONS TO VISIBILITY.

WIZ001-002-006>008-014>016-023>028-252300-
NORTHWEST WISCONSIN

CITY           SKY/WX    TMP DP  RH WIND       PRES   REMARKS
SUPERIOR ARPT  PTSUNNY   78  60  55 W7        29.63R
ASHLAND        FAIR      87  63  44 SW16G22   29.64F HX  88
HAYWARD        PTSUNNY   76  59  55 N7        29.69S
SIREN          FAIR     N/A N/A N/A MISG        N/A
CUMBERLAND     FAIR      79  63  57 SW10      29.69F HX  80
RICE LAKE      FAIR      80  65  59 SW6       29.71F HX  82
CHETEK         FAIR      78  68  69 MISG      29.70F HX  81
LADYSMITH      FAIR      79  66  65 SW3       29.72F HX  81
EAU CLAIRE     FAIR      79  64  60 S14       29.69F HX  81
MENOMONIE      FAIR      86  61  43 CALM      29.69F HX  86
NEW RICHMOND   PTSUNNY   85  64  49 SW8       29.68F HX  86
OSCEOLA        FAIR      82  62  51 SE8       29.69F HX  83
$$

WIZ003>005-009-010-017-018-252300-
NORTH CENTRAL WISCONSIN

CITY           SKY/WX    TMP DP  RH WIND       PRES   REMARKS
MANITOWISH WTR FAIR      78  64  63 SW8G17    29.72S
ARBOR VITAE    FAIR      80  64  59 W13       29.72S HX  81
WOODRUFF       FAIR      80  64  59 W13       29.72S HX  81
RHINELANDER    PTSUNNY   83  65  54 SW12G21   29.73F HX  85
EAGLE RIVER    FAIR      80  60  50 SW13G20   29.72S HX  81
LAND O LAKES   FAIR      81  59  46 SW12G18   29.73S HX  82
PHILLIPS       FAIR      78  67  69 SW8       29.71F HX  81
TOMAHAWK       FAIR      81  63  53 SW8       29.72F HX  82
MEDFORD        PTSUNNY   78  64  63 SW10G20   29.73F
MERRILL        PTSUNNY   84  66  53 SW14G21   29.72F HX  86
$$

WIZ029-030-035-036-043>047-252300-
CENTRAL WISCONSIN

CITY           SKY/WX    TMP DP  RH WIND       PRES   REMARKS
WAUSAU         NOT AVBL
MOSINEE        PTSUNNY   81  63  54 SW13G21   29.74F HX  82
MARSHFIELD     FAIR      80  65  59 W8        29.73F HX  82
STEVENS POINT  FAIR      82  63  52 SW10      29.73F HX  83
WAUPACA        FAIR      88  61  40 S16G22    29.72F HX  88
WAUTOMA        FAIR      86  65  49 SW14G22   29.74F HX  88
WISC RAPIDS    FAIR      84  64  50 S9        29.73F HX  85
CAMP DOUGLAS   FAIR      84  67  55 S14G20    29.73F HX  86
$$

WIZ011>013-019>022-031-037>040-048>050-252300-
NORTHEAST WISCONSIN

CITY           SKY/WX    TMP DP  RH WIND       PRES   REMARKS
ANTIGO         PTSUNNY   81  62  53 SW16G22   29.73F HX  82
SHAWANO        PTSUNNY   87  61  40 SW7       29.70F HX  87
OCONTO         FAIR      87  60  40 SW12G20   29.70F HX  87
STURGEON BAY   FAIR      86  64  47 SW14G24   29.72F HX  87
GREEN BAY      FAIR      86  64  47 SW12      29.72F HX  87
MANITOWOC      FAIR      77  62  59 S10       29.74F
APPLETON       PTSUNNY   82  57  42 SW16      29.74F HX  82
CLINTONVILLE   LGT RAIN  85  62  46 SW12      29.70F HX  85
OSHKOSH        FAIR      84  64  50 SW13G21   29.74F HX  85
$$

WIZ032>034-041-042-053>061-252300-
SOUTHWEST WISCONSIN

CITY           SKY/WX    TMP DP  RH WIND       PRES   REMARKS
LA CROSSE      FAIR      84  64  50 E5        29.70R THUNDER HX  85
SPARTA         FAIR      80  65  60 S7        29.72F HX  82
VIROQUA        FAIR      84  65  52 S13       29.75F HX  86
BOSCOBEL       FAIR      87  66  49 S9G17     29.74F HX  89
PRAIRIE DU CHI FAIR      85  60  42 S9        29.73F HX  85
PLATTEVILLE    FAIR      82  65  58 S15       29.80F HX  83
$$

WIZ056-057-062-063-064-067-068-252300-
SOUTH CENTRAL WISCONSIN

CITY           SKY/WX    TMP DP  RH WIND       PRES   REMARKS
REEDSBURG      FAIR      83  67  58 S14G20    29.74F HX  86
BARABOO/DELLS  FAIR      84  64  49 SW12      29.75F HX  85
LONE ROCK      PTSUNNY   83  65  54 SW12      29.75F HX  85
MINERAL POINT  FAIR      84  63  48 S10       29.79F HX  85
MADISON        PTSUNNY   84  65  52 SW8       29.76F HX  86
MIDDLETON      FAIR      84  65  52 S18       29.77F HX  86
WATERTOWN      FAIR      85  63  47 SW14      29.76F HX  86
MONROE         FAIR      79  54  41 S10       29.80F
JANESVILLE     LGT RAIN  75  63  64 N8        29.78F
$$

WIZ051-052-058>065-066-070>072-252300-
SOUTHEAST WISCONSIN

CITY           SKY/WX    TMP DP  RH WIND       PRES   REMARKS
MILWAUKEE      CLOUDY    86  60  41 S12       29.76F HX  86
WAUKESHA       SUNNY     82  57  42 SW6       29.78F HX  82
MILWAUKEE/TIMM SUNNY     84  52  32 SW16      29.78F HX  82
RACINE         FAIR      79  57  46 S14       29.79F HX  80
BURLINGTON     FAIR      83  60  45 S8        29.77F HX  84
KENOSHA        FAIR      85  59  41 SW12      29.78F HX  84
FOND DU LAC    FAIR      84  62  47 SW13      29.75F HX  85
SHEBOYGAN      FAIR      85  61  44 SW18G24   29.74F HX  85
WEST BEND      FAIR      82  59  44 SW13G18   29.76F HX  82
JUNEAU         FAIR      83  63  49 S16       29.78F HX  84
$$

LSZ147-162-252300-
LAKE SUPERIOR

STATION/POSITION TIME  TEMP    WIND        PRES    WAVE
                       AIR SEA DIR/SP/G            HT/PER
                 (UTC) (F)     (DEG/KT/KT) (MB)    (FT/S)
W MID LAKE BUOY  2150   48 37  330/  4/  8 1003.3F   0
DEVILS ISLAND    2200   72     240/  8/  9 1002.5F
SAXON HARBOR     2140   85     230/  8/ 16 1003.0F
$$

LMZ867-665-643>646-252300-
LAKE MICHIGAN

STATION/POSITION TIME  TEMP    WIND        PRES    WAVE
                       AIR SEA DIR/SP/G            HT/PER
                 (UTC) (F)     (DEG/KT/KT) (MB)    (FT/S)
N MID LAKE BUOY  2200   48 38  260/  6/ 10 1006.8
NORTHPORT PIER   2140   58     140/  4/  5 1006.4F
KEWAUNEE LAKESHO 2154          170/ 16/ 18 1006.7F
SHEBOYGAN LAKESH 2200   64     180/ 20/ 20 1006.9F
PORT WASHINGTON  2140   63     180/  6/  9 1008.8F
ATWATER BUOY     2137   61     160/ 10/ 14 1008.0F   1/ 3
MILWAUKEE LAKESH 2200   64     140/ 11/ 13   N/A
S MID LAKE BUOY  2150   53 39  150/ 12/ 12 1009.0F   0
KENOSHA   LAKESH 2200   69                 1008.1
$$

TC  - TEMPERATURE IN CELSIUS
VSB - VISIBILITY IN STATUTE MILES
WCI - WIND CHILL INDEX
HX  - HEAT INDEX




USA.gov is the U.S. government's official web portal to all federal, state and local government web resources and services.